Wind_Speed
55 54 54 55 56 56 55 54 54 54 53 52 51 50 49 49 48 47 47 46 45 45 44 42 42 41 40 39 38 37 36 35 35 34 33 32 32 31
56 56 57 56 56 57 58 57 56 55 55 53 52 50 50 49 49 48 47 46 45 45 44 44 43 42 41 40 39 38 37 36 35 34 33 33 32 31
57 57 57 57 56 57 58 58 58 57 55 54 53 52 51 50 50 49 48 47 46 45 44 44 44 43 42 41 40 40 38 37 36 35 33 33 32 31
57 57 57 57 57 58 58 59 59 59 58 56 55 53 52 52 52 51 49 48 47 46 45 45 45 44 43 43 42 41 39 37 37 36 34 33 32 30
57 57 57 57 57 57 58 58 58 58 57 56 55 55 54 54 53 51 50 49 49 48 47 46 45 44 43 42 41 41 40 39 38 36 35 34 32 30
55 56 56 57 58 57 56 57 57 57 56 58 57 56 56 56 54 52 50 50 50 49 49 47 47 45 44 43 41 40 40 39 37 36 34 33 31 30
54 54 55 56 55 56 56 55 56 57 57 57 57 56 55 54 53 52 52 50 49 49 49 48 47 46 44 44 42 40 39 38 37 35 34 32 31 30
52 53 54 54 54 54 54 55 55 56 56 55 55 54 52 51 51 52 52 51 51 50 49 48 47 46 44 44 42 40 39 38 37 35 34 32 31 31
50 51 51 52 52 52 52 53 54 54 54 54 55 54 52 51 51 51 52 51 50 48 48 46 45 44 43 42 42 40 39 38 37 35 33 32 31 30
48 48 49 49 51 51 51 52 53 53 54 54 52 52 52 53 53 53 52 52 52 50 47 45 44 42 42 42 41 40 38 37 37 35 33 32 32 30
45 46 47 48 50 50 50 49 50 51 53 52 52 52 51 52 53 52 51 50 49 47 45 44 43 42 43 42 41 40 39 37 36 35 34 33 31 30
44 45 46 47 47 48 49 49 49 49 50 51 51 51 51 50 50 50 49 49 49 48 46 44 43 42 42 41 40 39 38 37 36 36 34 33 31 30
42 43 44 45 46 47 48 48 47 47 48 49 50 50 50 50 49 49 49 49 49 48 46 45 44 43 41 40 39 38 37 37 37 35 34 32 31 30
40 42 42 43 45 46 47 48 48 47 48 49 49 49 49 49 48 48 48 48 48 48 47 45 44 42 41 40 38 38 37 36 36 35 34 33 31 30
39 41 41 43 45 46 46 47 47 46 46 47 47 47 47 46 46 46 46 46 47 46 45 44 43 42 41 40 38 37 37 36 35 35 34 33 32 31
40 41 42 42 43 44 44 44 44 43 43 44 44 45 45 45 44 44 44 44 44 44 43 42 41 40 40 39 38 37 36 36 35 34 34 33 33 32
39 40 41 40 39 40 41 42 43 43 43 43 43 44 44 44 43 42 42 42 42 42 41 41 40 40 39 38 37 36 35 35 34 34 34 33 33 32
39 38 38 38 39 40 40 40 42 42 42 42 42 42 42 41 41 40 41 41 41 40 39 39 38 38 38 37 37 36 36 36 35 35 34 34 33 32
36 37 37 38 38 39 39 40 40 40 40 40 40 40 40 40 40 39 40 40 39 38 38 38 38 38 38 37 36 35 36 36 36 35 34 33 33 33
36 36 37 37 37 37 37 38 38 38 39 39 39 39 38 38 38 38 38 38 38 37 37 37 37 37 37 36 36 36 36 36 36 35 34 33 33 33
35 35 35 35 35 36 37 36 36 36 36 37 38 37 37 37 38 37 37 37 37 37 37 37 37 36 36 37 36 36 36 35 35 34 34 34 34 34
35 35 35 35 34 35 36 37 36 35 35 35 35 36 36 36 36 36 36 36 36 36 36 36 37 37 36 36 36 35 35 35 34 34 34 34 34 33
34 34 34 34 34 34 35 35 36 35 35 35 35 34 35 35 36 35 34 34 35 35 35 36 36 36 36 35 35 34 34 34 34 34 34 34 34 33
Wind_Direction
250 252 254 255 255 255 256 257 259 260 262 262 264 266 268 270 270 271 272 273 273 274 274 275 276 277 279 281 283 284 286 290 293 296 298 301 303 304
251 253 254 255 255 256 257 257 259 261 263 262 263 264 267 268 268 270 271 272 273 273 273 273 274 275 277 278 280 283 285 288 290 292 294 297 299 301
252 255 256 256 255 255 256 257 258 260 262 262 262 263 265 266 268 269 270 271 272 272 272 273 273 274 276 277 279 280 283 284 287 289 291 292 294 298
254 255 254 255 255 255 256 257 258 259 261 262 262 262 264 266 268 269 269 269 269 270 272 273 274 273 274 276 277 278 280 281 285 287 289 289 291 293
255 255 255 255 256 256 256 256 258 260 261 263 263 262 263 265 266 267 267 267 268 268 269 271 272 273 273 275 275 276 277 279 282 285 286 286 287 288
256 256 256 256 256 256 257 258 259 259 261 262 262 263 263 264 264 265 266 267 266 266 267 269 269 271 272 273 273 275 276 277 279 281 281 282 283 283
256 256 257 256 255 257 258 258 259 260 260 261 262 263 263 264 264 264 264 265 265 265 266 266 267 269 271 271 272 273 273 275 278 278 277 277 278 280
256 255 256 256 257 257 257 258 259 260 261 261 261 261 263 262 262 263 263 264 264 264 264 265 268 269 271 272 270 271 272 275 275 274 273 273 274 276
255 255 255 256 256 256 257 258 258 258 259 261 261 261 261 260 261 262 262 262 262 262 263 264 266 268 270 269 268 269 271 273 273 272 271 271 272 272
256 255 255 255 256 257 258 258 258 257 257 259 260 262 260 259 260 260 261 262 262 261 262 264 265 267 267 267 268 268 270 270 271 270 269 267 267 269
256 255 255 255 256 257 257 257 258 258 257 258 259 260 261 260 260 260 259 260 260 261 261 262 264 266 266 265 264 265 265 266 268 268 267 266 265 266
256 256 256 257 256 255 257 258 258 259 258 258 259 259 260 260 260 258 257 258 258 259 259 261 262 262 262 262 261 261 262 263 265 266 266 264 264 264
259 259 259 258 258 257 259 260 260 260 260 259 259 259 259 259 259 257 257 256 257 256 257 260 261 260 260 259 260 260 260 261 263 263 263 261 261 262
263 262 263 263 262 261 260 261 261 261 261 261 261 260 258 259 257 257 255 254 255 255 256 258 259 259 258 257 257 258 258 259 260 260 260 258 258 259
267 266 266 266 265 263 261 261 262 263 262 261 260 258 256 256 255 255 253 253 255 255 256 257 256 257 256 255 255 254 255 257 258 258 257 256 256 258
271 268 268 268 267 265 263 262 262 262 262 260 258 255 254 254 254 253 253 253 253 254 255 255 255 254 255 255 254 253 254 256 256 255 254 254 255 256
274 271 268 266 266 264 263 263 262 262 261 259 256 253 252 251 252 252 252 253 254 254 254 255 255 255 255 253 251 251 252 253 253 253 253 253 254 255
276 271 268 266 266 265 263 262 262 261 260 258 256 253 252 251 252 251 252 253 254 253 254 253 252 252 252 250 249 250 251 252 251 251 251 253 253 254
278 273 270 269 267 267 264 262 260 259 258 257 255 253 252 251 251 251 251 251 251 251 251 251 250 250 250 249 249 249 250 249 248 249 250 251 251 252
282 277 272 270 268 266 263 261 259 258 257 255 254 252 252 252 251 252 251 250 249 249 249 248 248 248 248 247 246 246 247 247 248 249 249 250 251 251
283 280 274 270 268 265 262 260 258 257 256 255 254 252 252 252 250 249 249 248 247 247 247 247 247 246 245 244 244 245 246 246 247 248 249 250 250 251
283 280 275 270 267 265 263 259 257 256 255 255 253 251 250 250 249 247 247 246 246 245 246 245 244 244 243 244 244 245 246 246 247 248 248 249 250 250
282 279 275 271 268 265 262 259 256 255 254 253 253 251 249 249 248 246 245 244 244 244 244 243 243 243 243 244 244 245 245 246 246 247 249 249 250 251
Height
5711 5713 5714 5716 5718 5719 5720 5721 5722 5722 5725 5727 5727 5727 5726 5726 5726 5726 5726 5727 5727 5727 5727 5726 5727 5727 5727 5727 5726 5725 5724 5723 5721 5719 5717 5716 5714 5712
5697 5699 5701 5703 5704 5705 5706 5707 5708 5709 5710 5714 5714 5714 5714 5714 5714 5714 5714 5715 5715 5715 5715 5715 5715 5716 5716 5716 5716 5715 5714 5714 5712 5711 5709 5707 5706 5704
5683 5685 5687 5689 5690 5691 5692 5693 5694 5695 5697 5700 5701 5701 5701 5701 5702 5702 5702 5703 5703 5703 5703 5703 5704 5704 5705 5705 5706 5705 5704 5704 5703 5701 5700 5698 5697 5696
5668 5670 5672 5674 5675 5676 5678 5679 5681 5682 5683 5685 5687 5687 5688 5689 5689 5689 5689 5690 5690 5691 5691 5691 5692 5693 5693 5694 5694 5694 5693 5693 5692 5691 5690 5689 5688 5687
5653 5655 5657 5659 5660 5662 5663 5665 5667 5668 5669 5670 5672 5673 5674 5675 5675 5676 5676 5676 5677 5677 5678 5679 5679 5680 5681 5682 5682 5682 5682 5682 5682 5681 5680 5680 5679 5678
5638 5640 5642 5644 5646 5647 5649 5650 5652 5653 5654 5655 5657 5658 5659 5660 5660 5661 5662 5662 5663 5664 5665 5665 5667 5667 5669 5670 5670 5670 5671 5671 5671 5670 5670 5670 5670 5669
5623 5625 5627 5629 5631 5632 5634 5635 5636 5637 5638 5639 5641 5642 5643 5644 5646 5647 5647 5648 5649 5650 5651 5652 5653 5655 5656 5657 5658 5658 5659 5659 5659 5659 5660 5660 5660 5660
5608 5610 5612 5614 5617 5617 5619 5620 5621 5622 5623 5624 5625 5627 5628 5630 5631 5631 5632 5633 5635 5638 5638 5639 5640 5641 5643 5644 5646 5647 5647 5648 5648 5649 5649 5649 5650 5650
5593 5595 5598 5600 5601 5603 5604 5605 5605 5606 5607 5608 5610 5611 5613 5615 5616 5617 5618 5619 5621 5623 5624 5625 5627 5628 5630 5632 5633 5635 5636 5637 5637 5638 5639 5639 5640 5640
5579 5581 5583 5585 5586 5588 5588 5589 5590 5591 5592 5593 5596 5597 5598 5599 5600 5602 5603 5605 5607 5609 5610 5612 5614 5616 5618 5620 5621 5623 5624 5626 5627 5628 5628 5629 5629 5630
5566 5567 5569 5571 5572 5573 5574 5574 5575 5576 5577 5578 5580 5582 5583 5584 5585 5586 5588 5590 5593 5595 5597 5600 5602 5604 5605 5607 5609 5611 5612 5614 5616 5617 5617 5618 5619 5620
5553 5554 5555 5556 5557 5558 5559 5560 5561 5562 5563 5564 5565 5566 5567 5569 5570 5572 5575 5577 5580 5583 5585 5588 5589 5591 5593 5595 5597 5599 5601 5602 5604 5605 5607 5608 5609 5610
5540 5541 5542 5543 5543 5544 5545 5546 5547 5548 5548 5549 5550 5551 5553 5555 5557 5558 5561 5564 5567 5570 5573 5575 5577 5578 5580 5583 5585 5587 5589 5591 5593 5594 5596 5597 5599 5601
5528 5529 5529 5530 5530 5531 5531 5532 5533 5534 5534 5535 5536 5537 5539 5541 5543 5545 5547 5550 5553 5556 5559 5561 5563 5565 5568 5570 5573 5575 5577 5579 5582 5584 5585 5587 5589 5590
5516 5516 5516 5516 5516 5516 5517 5518 5518 5519 5520 5521 5522 5524 5526 5528 5529 5531 5533 5536 5539 5542 5545 5547 5550 5553 5556 5558 5561 5563 5566 5568 5570 5572 5574 5576 5578 5580
5503 5503 5502 5502 5502 5503 5503 5504 5505 5506 5507 5508 5509 5511 5512 5514 5516 5519 5521 5524 5527 5529 5532 5535 5537 5541 5544 5546 5550 5552 5555 5558 5560 5562 5564 5566 5568 5570
5491 5490 5490 5490 5490 5490 5491 5491 5492 5492 5494 5495 5496 5498 5500 5502 5504 5506 5509 5512 5515 5517 5520 5523 5526 5529 5532 5535 5538 5541 5544 5546 5549 5551 5554 5556 5558 5560
5479 5478 5478 5478 5478 5478 5479 5479 5479 5480 5481 5482 5484 5486 5488 5490 5492 5494 5497 5500 5503 5506 5508 5511 5514 5517 5520 5524 5527 5530 5533 5536 5538 5541 5543 5546 5548 5550
5467 5466 5466 5466 5466 5465 5466 5467 5467 5468 5469 5470 5472 5474 5476 5478 5480 5483 5486 5488 5491 5494 5497 5500 5503 5506 5509 5513 5516 5519 5522 5525 5527 5530 5533 5535 5537 5540
5456 5455 5454 5454 5453 5454 5454 5455 5455 5456 5457 5458 5460 5462 5464 5467 5469 5472 5474 5477 5480 5483 5486 5489 5492 5495 5498 5502 5505 5508 5511 5514 5517 5519 5522 5524 5527 5529
5445 5443 5442 5442 5441 5442 5442 5443 5443 5444 5446 5447 5449 5451 5453 5456 5458 5460 5463 5465 5468 5471 5475 5478 5481 5484 5487 5490 5494 5497 5500 5503 5506 5509 5511 5514 5516 5519
5433 5432 5431 5430 5430 5430 5430 5431 5432 5433 5434 5436 5438 5440 5442 5445 5447 5449 5452 5455 5458 5461 5464 5467 5470 5473 5476 5480 5483 5486 5490 5492 5495 5498 5501 5504 5506 5508
5421 5420 5419 5418 5418 5418 5418 5419 5420 5422 5423 5425 5427 5429 5431 5433 5436 5438 5441 5444 5447 5450 5453 5456 5459 5463 5466 5469 5472 5476 5479 5482 5485 5488 5491 5493 5496 5498